Regional Weather Roundup
Issued by NWS

Home | Current Version | Previous Version | Graphics & Text | Print | Product List | Glossary On
Versions: 1 2 3 4 5 6 7 8 9 10 11 12 13 14 15 16 17 18 19 20 21 22 23 24 25 26 27 28 29 30 31 32 33 34 35 36 37 38 39 40 41 42 43 44 45 46 47 48 49 50
000
ASUS43 KDTX 291910
RWRMI
MICHIGAN HOURLY REGIONAL WEATHER ROUNDUP
NATIONAL WEATHER SERVICE DETROIT/PONTIAC MI
300 PM EDT MON AUG 29 2016

NOTE: "FAIR" INDICATES FEW OR NO CLOUDS BELOW 12,000 FEET WITH NO
SIGNIFICANT WEATHER AND/OR OBSTRUCTION TO VISIBILITY.

MIZ047>049-052>055-059>063-066>070-074>076-081>083-292000-
SOUTHEAST LOWER MICHIGAN

CITY           SKY/WX    TMP DP  RH WIND       PRES   REMARKS
ADRIAN         MOSUNNY   80  68  66 VRB3      30.27F
ALMA           MOSUNNY   78  69  76 W3        30.28F
ANN ARBOR      MOSUNNY   82  64  54 VRB5      30.27F
BAD AXE        SUNNY     78  58  49 CALM      30.28F
CARO           MOSUNNY   80  66  62 N3        30.27F
DETROIT CITY   SUNNY     80  66  62 E5        30.27F
DETROIT        MOSUNNY   82  64  54 VRB6      30.27F
FLINT          SUNNY     81  65  58 CALM      30.27F
GROSSE ILE     SUNNY     78  68  70 S8        30.26F
HILLSDALE      MOSUNNY   81  66  60 CALM      30.28S
HOWELL         MOSUNNY   81  63  53 CALM      30.28F

CITY           SKY/WX    TMP DP  RH WIND       PRES   REMARKS
JACKSON        SUNNY     81  63  54 VRB3      30.27F
LAMBERTVILLE   MOSUNNY   81  68  65 SE8       30.27F
LANSING        SUNNY     82  62  50 E5        30.27F
LAPEER         FAIR      80  60  50 CALM      30.28F
MASON          SUNNY     82  63  52 SW3       30.28S
MONROE         SUNNY     80  66  62 S13       30.27F
MT. CLEMENS    MOSUNNY   80  66  62 S5        30.27S
PONTIAC        MOSUNNY   81  64  56 S8        30.27F
PORT HURON     MOSUNNY   79  64  61 NE5       30.27F
TRI CITIES     MOSUNNY   80  65  59 VRB3      30.27F
MIDLAND        FAIR      81  63  54 W3        30.27S
TROY           SUNNY     83  60  45 SW3       30.28F
SAGINAW HB     MOSUNNY   81  63  54 CALM      30.26F
$$
MIZ043>046-050>051-056>058-064>065-071>073-077>080-292000-
SOUTHWEST LOWER MICHIGAN

CITY           SKY/WX    TMP DP  RH WIND       PRES   REMARKS
BATTLE CREEK   MOSUNNY   80  69  69 SE8       30.27F
BENTON HARBOR  MOSUNNY   81  71  71 W6        30.24F
BIG RAPIDS     PTSUNNY   78  68  69 SE7       30.27F
COLDWATER      SUNNY     82  66  56 CALM      30.27F
FREMONT        FAIR      82  66  59 SE3       30.25F
HOLLAND        MOSUNNY   83  68  60 CALM      30.25F
GRAND RAPIDS   PTSUNNY   82  66  58 S5        30.26F
IONIA          FAIR      80  64  58 E6        30.26F
KALAMAZOO      MOSUNNY   85  67  54 CALM      30.26F
LUDINGTON      SUNNY     79  70  72 SW8       30.24F
MARSHALL       MOSUNNY   82  68  61 CALM      30.27S
MOUNT PLEASANT MOSUNNY   80  66  63 SW5       30.27F
MUSKEGON       MOSUNNY   84  69  60 VRB7      30.25F
SOUTH HAVEN    MOSUNNY   85  73  65 NW6       30.24F HX  92
$$
MIZ016>042-292000-
NORTHERN LOWER MICHIGAN

CITY           SKY/WX    TMP DP  RH WIND       PRES   REMARKS
ALPENA         SUNNY     78  57  48 E7        30.27F
BEAVER ISLAND  MOSUNNY   78  57  48 S8        30.23S
BELLAIRE       MOSUNNY   83  50  32 S7        30.24F
CADILLAC       PTSUNNY   80  65  59 S9        30.27S
CHARLEVOIX     CLOUDY    78  62  57 E8        30.25F
FRANKFORT      SUNNY     78  66  65 SW7       30.22F
GAYLORD        CLOUDY    80  56  43 SW9       30.28F
GRAYLING       SUNNY     82  56  41 S7        30.28F
HARBOR SPRINGS CLOUDY    80  60  49 CALM      30.24F
HOUGHTON LAKE  SUNNY     80  57  45 VRB3      30.29F
MANISTEE       SUNNY     82  70  66 W12       30.22F
OSCODA         SUNNY     75  59  58 E8        30.28S
PELLSTON       CLOUDY    80  59  48 SE8       30.25F
ROGERS CITY    SUNNY     73  63  70 E8        30.27F
TRAVERSE CITY  PTSUNNY   84  61  45 SE9       30.21F
$$
MIZ007>008-015-292000-
EASTERN UPPER MICHIGAN

CITY           SKY/WX    TMP DP  RH WIND       PRES   REMARKS
KINROSS        MOSUNNY   76  60  57 S14       30.24F
MACKINAC ISLAN SUNNY     69  62  76 E9G16     30.25F
NEWBERRY       PTSUNNY   74  57  56 S12       30.24R
S. S. MARIE    MOSUNNY   75  61  61 SE13G18   30.23F
$$
MIZ004>006-011>014-085-292000-
CENTRAL UPPER MICHIGAN

CITY           SKY/WX    TMP DP  RH WIND       PRES   REMARKS
MANISTIQUE     PTSUNNY   74  66  77 S9        30.22F
ESCANABA       MOSUNNY   75  68  78 SE14      30.20F
MENOMINEE        N/A    N/A N/A N/A SW15      30.20
SAWYER-GWINN   MOSUNNY   79  66  65 S14       30.19F
$$
MIZ001>003-009>011-084-292000-
WESTERN UPPER MICHIGAN

CITY           SKY/WX    TMP DP  RH WIND       PRES   REMARKS
IRON MOUNTAIN  MOSUNNY   81  67  62 S9        30.18F
HOUGHTON       CLOUDY    81  59  47 W14G20    30.13F
COPPER HARBOR    N/A     75  66  73 VRB5      30.11
IRONWOOD       MOSUNNY   81  64  56 SW9       30.16S
$$

ABBREVIATIONS USED IN REMARKS
   TC - TEMPERATURE IN CELSIUS
  WCI - WIND CHILL INDEX
   HX - HEAT INDEX
  VSB - VISIBILITY





USA.gov is the U.S. government's official web portal to all federal, state and local government web resources and services.